星链-35210(STARLINK-35210)

导读

STARLINK-35210是美国SpaceX公司星链(Starlink)卫星互联网星座的一员,于2025年10月7日发射升空,归入星链低轨通信卫星组网序列。星链作为全球规模最大的低轨卫星互联网项目,依靠批量发射降低部署成本,旨在为全球提供高覆盖度的宽带互联网服务,该卫星入轨后将助力星链进一步拓展全球网络覆盖范围,强化星座通信服务能力。

基本信息
目录编号:
65903
目录名称:
STARLINK-35210
国际标识:
2025-224X
轨道中心:
EARTH
卫星名称:
星链-35210
卫星全名:
星链-35210(STARLINK-35210)
卫星状态:
在轨 (已飞行249 天)
发射日期:
2025-10-07 UTC
国别 :
美国 (US)
星等 :
--
轨道信息
数据来源 国际轨道数据
星历时间: 2026-06-13T09:52:26+0800
12小时前
查看轨道信息
半长轴: 6853.344km
偏心率: 0.000164
轨道倾角: 53.161°
近地点辐角 97.912°
升交点赤经 288.629°
平近点角 262.207°
近地点: 474.083km
远地点: 476.331km
周期: 94.105分钟
每日圈数: 15.30203
详细信息
固有亮度:
5
最大亮度:
2.5
卫星平台:
Starlink V1.0
覆盖范围:
全球
运营商:
太空探索技术公司
运营商所在国:
美国
制造商(研发单位):
太空探索技术公司
制造商所在国:
美国
使用方式:
暂无
卫星简介
Starlink 计划是 SpaceX 推出的全球卫星互联网项目,通过发射低轨道卫星,为全球尤其是偏远地区提供高速、低延迟的互联网服务。自 2019 年起,Starlink 已部署数千颗卫星,旨在缩小全球数字鸿沟,推动互联网普及。该项目还为军事、航空等行业提供通信支持,带来广泛经济效益。
2D轨道图
3D轨道图
轨道高度分析图
轨道倾角分析图
轨道综合分析图
查看轨道综合分析图